Location: ?????????
(53.2086°N, 54.0693°E)
Time: 05:08:51
(UTC+00:00)

Cosmos 1634 Rocket - Pass Details

Date: 08 December 2019
Orbit: 960 x 991 km, 82.9° (Epoch: 25 January)

Event Time Altitude Azimuth Distance (km) Brightness Sun altitude
Rises 12:56:49 0° 348° (NNW) 3,659 6.8 -7.1°
Reaches altitude 10° 12:59:19 10° 348° (NNW) 2,708 6.2 -7.4°
Maximum altitude 13:05:31 81° 262° (W) 981 4.2 -8.2°
Drops below altitude 10° 13:11:41 10° 177° (S) 2,699 6.6 -9.1°
Sets 13:14:11 0° 176° (S) 3,645 7.3 -9.4°
